Location: *
(44.1392°N, 4.8079°E)
Time: 08:34:04
(UTC+00:00)

Meteor 2-3 Rocket - Pass Details

Date: 21 June 2021
Orbit: 842 x 885 km, 81.2° (Epoch: 02 August)

Event Time Altitude Azimuth Distance (km) Brightness Sun altitude
Exits shadow 01:23:34 21° 159° (SSE) 1,820 5.0 -18.6°
Maximum altitude 01:27:05 49° 94° (E) 1,080 4.4 -18.3°
Drops below altitude 10° 01:32:27 10° 21° (NNE) 2,472 7.4 -17.9°
Sets 01:34:56 0° 16° (NNE) 3,411 8.5 -17.7°
